Regional Weather Roundup
Issued by NWS

Home | Current Version | Previous Version | Text Only | Print | Product List | Glossary On
Versions: 1 2 3 4 5 6 7 8 9 10 11 12 13 14 15 16 17 18 19 20 21 22 23 24 25 26 27 28 29 30 31 32 33 34 35 36 37 38 39 40 41 42 43 44 45 46 47 48 49 50
000
ASUS43 KTOP 290759
RWRKS

WEATHER ROUNDUP FOR KANSAS
NATIONAL WEATHER SERVICE GOODLAND KS
300 AM CDT MON MAY 29 2017

NOTE:  "FAIR" INDICATES FEW OR NO CLOUDS BELOW 12,000 FEET WITH NO
SIGNIFICANT WEATHER AND/OR OBSTRUCTIONS TO VISIBILITY.

KSZ001>006-013>018-027>032-041>047-290900-
NORTHWEST KANSAS

CITY           SKY/WX    TMP DP  RH WIND       PRES   REMARKS
GOODLAND       CLEAR     50  46  86 NW12      30.16R
HAYS           PTCLDY    56  51  84 N9        30.05R
HILL CITY      CLEAR     57  50  77 VRB6      30.08R
RUSSELL        PTCLDY    55  51  86 NW5       30.03R
$$

KSZ061>065-074>080-084>089-290900-
SOUTHWEST KANSAS

CITY           SKY/WX    TMP DP  RH WIND       PRES   REMARKS
DODGE CITY     CLEAR     57  43  59 SW9       30.08S
ELKHART          N/A     55  36  49 MISG        N/A
GARDEN CITY    CLEAR     52  41  66 NW17      30.11R
GREAT BEND     CLEAR     53  48  83 W5        30.04R
LIBERAL        CLEAR     55  46  71 SW5       30.13S
$$

KSZ066>073-081>083-090>101-290900-
SOUTHEAST KANSAS

CITY           SKY/WX    TMP DP  RH WIND       PRES   REMARKS
CHANUTE        CLEAR     60  49  66 CALM      29.99S
COFFEYVILLE    CLEAR     58  56  93 S5        30.00S
HUTCHINSON     CLEAR     55  49  80 CALM      30.02R
MEDICINE LODGE   N/A     53  48  83 N3        30.04S
NEWTON         CLEAR     60  48  64 W5        30.02S
PARSONS        CLEAR     55  53  93 CALM      30.00F
WICHITA INTL   CLEAR     58  49  72 SW3       30.02R
WICHITA JABRA  CLEAR     64  45  49 SW9       30.01S
WINFIELD       PTCLDY    59  51  75 S3        30.03S
$$

KSZ007>012-019>026-033>040-048>060-102>105-290900-
NORTHEAST KANSAS

CITY           SKY/WX    TMP DP  RH WIND       PRES   REMARKS
CONCORDIA      PTCLDY    60  50  69 W8        30.00R
EMPORIA        CLEAR     56  50  80 SW7       29.99F
LAWRENCE       PTCLDY    53  53 100 NW3       29.96F
MANHATTAN      CLEAR     55  53  93 SW3       29.98R
OLATHE IND     CLEAR     56  52  86 S5        29.97F
OLATHE EXE     CLEAR     57  54  89 CALM      29.96F
SALINA         CLEAR     57  52  83 CALM      30.00S
TOPEKA BILLARD CLEAR     57  55  93 CALM      29.96S
TOPEKA FORBES  PTCLDY    58  52  80 CALM      29.96S
$$



USA.gov is the U.S. government's official web portal to all federal, state and local government web resources and services.